Regional Weather Roundup
Issued by NWS

Home | Current Version | Previous Version | Text Only | Print | Product List | Glossary Off
Versions: 1 2 3 4 5 6 7 8 9 10 11 12 13 14 15 16 17 18 19 20 21 22 23 24 25 26 27 28 29 30 31 32 33 34 35 36 37 38 39 40 41 42 43 44 45 46 47 48 49 50

000
ASUS43 KDMX 040104
RWRIA

WEATHER ROUNDUP FOR IOWA
NATIONAL WEATHER SERVICE DES MOINES IA
  ISSUED BY NWS QUAD CITIES IA IL
700 PM CST TUE MAR 03 2015

NOTE: "FAIR" INDICATES FEW OR NO CLOUDS BELOW 12,000 FEET WITH NO
SIGNIFICANT WEATHER AND/OR OBSTRUCTIONS TO VISIBILITY.

* - THESE STATIONS ARE NOT NWS STATIONS...THUS NOT UNDER NWS
QUALITY CONTROL.  THEY ALSO DO NOT REPORT WEATHER SUCH
AS PRECIPITATION OR FOG.

IAZ001>003-012>014-020>022-031>034-043>046-040200-
   NORTHWEST IOWA

CITY           SKY/WX    TMP DP  RH WIND       PRES   REMARKS
CARROLL *      PTCLDY    19  12  73 NW20G29   30.00R WCI   4
CHEROKEE *     CLEAR     15   8  75 NW13G22   30.03R WCI   1
DENNISON *     PTCLDY    19   9  63 NW14G22   30.01R WCI   6
LE MARS *      CLEAR     16   7  67 NW12G17   30.05R WCI   3
ORANGE CITY *  CLEAR     16   5  62 NW15      30.00R WCI   1
SHELDON *      CLEAR     12   5  73 NW17G26   29.99R WCI  -5
SIOUX CITY     CLEAR     19   6  57 N20G28    30.06R WCI   3
SPENCER        PTCLDY    13   5  70 NW15G26   29.99R WCI  -3
STORM LAKE *   MOCLDY    14   7  73 NW17G26   30.01R WCI  -3
$$

IAZ055>058-069>071-079>083-090>094-040200-
   SOUTHWEST IOWA

CITY           SKY/WX    TMP DP  RH WIND       PRES   REMARKS
ATLANTIC *     MOCLDY    25  16  68 N20       29.98R WCI  11
AUDUBON *      MOCLDY    23  14  68 NW14G21   29.99R WCI  11
CLARINDA *     CLOUDY    28  19  69 N17G26    30.00R WCI  16
COUNCIL BLFS * MOCLDY    25   9  50 N16G25    29.99R WCI  12
CRESTON *      CLOUDY    27  19  74 N16G24    29.96R WCI  14
HARLAN *       PTCLDY    21  12  68 N20G28    30.04R WCI   6
LAMONI         CLOUDY    30  24  78 NW10      29.92R WCI  21
RED OAK *      CLOUDY    27  19  74 N13       29.99R WCI  16
SHENANDOAH *   MOCLDY    28  18  64 N12G20    30.01R WCI  18
$$

IAZ047>049-059>061-072>074-084-040200-
   CENTRAL IOWA

CITY           SKY/WX    TMP DP  RH WIND       PRES   REMARKS
AMES           CLOUDY    24  15  68 NW16G22   29.96R WCI  11
ANKENY *       CLOUDY    27  18  69 N14G21    29.96R WCI  15
BOONE *        CLOUDY    23  16  74 NW16G26   29.94R WCI  10
CHARITON *     CLOUDY    30  23  74 NW18G29   29.93R WCI  18
DES MOINES     CLOUDY    28  17  63 N17G25    29.95R WCI  16
GRINNELL *     CLOUDY    24  19  80 NW16G22   29.93R WCI  11
KNOXVILLE *    MIX PCPN  30  21  69 N15G22    29.93R WCI  19
MARSHALLTOWN   CLOUDY    22  15  75 NW20      29.93R WCI   7
NEWTON *       CLOUDY    25  18  74 NW16G23   29.94R WCI  12
PELLA *        CLOUDY    28  24  84 NW20      29.95R WCI  15
PERRY *          N/A     25  18  76 NW18      29.97R WCI  11
$$

IAZ004>006-015-016-023>025-035-036-040200-
   NORTH CENTRAL IOWA

CITY           SKY/WX    TMP DP  RH WIND       PRES   REMARKS
ALGONA *       CLEAR     16 N/A N/A NW16G24   29.96R WCI   0
CLARION *      MOCLDY    18  12  79 NW20      29.95R WCI   1
ESTHERVILLE    PTCLDY    13   5  70 NW21G30   29.95R WCI  -5
FORT DODGE *   PTCLDY    19   9  63 NW7G18    29.98R WCI  10
MASON CITY     CLEAR     15   7  70 NW18      29.93R WCI  -2
FOREST CITY *  FAIR      16   7  67 NW18G25   29.93R WCI  -1
WEBSTER CITY * MOCLDY    19  18  93 NW22      29.94R WCI   3
IOWA FALLS *   FAIR      19  14  79 NW17      29.93R WCI   4
$$

IAZ007>011-017>019-026>030-037>042-050>054-066-040200-
   NORTHEAST IOWA

CITY           SKY/WX    TMP DP  RH WIND       PRES   REMARKS
CEDAR RAPIDS   CLOUDY    27  22  81 NW23      29.87R WCI  12
CHARLES CITY * PTCLDY    18  12  79 NW24      29.89R WCI   0
CLINTON *      CLOUDY    30  25  80 W13       29.84R WCI  20
DECORAH *      CLOUDY    23  18  80 W16G24    29.83R WCI  10
DUBUQUE        CLOUDY    30  25  81 W10       29.80R HAZE    WCI  21
MONTICELLO *   CLOUDY    28  25  86 NW18G25   29.84R WCI  16
OELWEIN *      CLOUDY    23  18  80 NW18      29.87R WCI   9
WATERLOO       MOCLDY    21  14  74 NW17G26   29.90R WCI   7
$$

IAZ064-065-067-068-078-040200-
   EAST CENTRAL IOWA

CITY           SKY/WX    TMP DP  RH WIND       PRES   REMARKS
DAVENPORT      CLOUDY    31  25  78 NW12      29.83R WCI  22
IOWA CITY      CLOUDY    29  22  75 NW22G32   29.90R WCI  15
MT. PLEASANT * CLOUDY    33  26  76 W6        29.88R WCI  27
MUSCATINE *    CLOUDY    34  27  75 NW12      29.87R WCI  25
QUAD CITIES    CLOUDY    33  26  75 NW8       29.84R WCI  26
$$

IAZ062-063-075>077-085>089-095>099-040200-
   SOUTHEAST IOWA

CITY           SKY/WX    TMP DP  RH WIND       PRES   REMARKS
BURLINGTON     CLOUDY    34  27  75 NW8       29.87R WCI  27
FAIRFIELD *    CLOUDY    32  27  80 NW21      29.89R WCI  20
FORT MADISON * CLOUDY    34  28  80 NW7       29.90R WCI  28
KEOKUK *       CLOUDY    36  28  75 NW13      29.90R WCI  27
OSKALOOSA *    CLOUDY    29  24  81 NW22      29.92R WCI  16
OTTUMWA        CLOUDY    30  25  81 N21G30    29.90R WCI  17
WASHINGTON *   CLOUDY    32  30  93 NW18G26   29.88R WCI  20
$$

ABBREVIATIONS USED IN REMARKS
   TC - TEMPERATURES IN CELSIUS
  WCI - WIND CHILL INDEX
   HX - HEAT INDEX
  VSB - VISIBILITY
$$



USA.gov is the U.S. government's official web portal to all federal, state and local government web resources and services.